TimeEST,TemperatureF,Dew PointF,Humidity,Sea Level PressureIn,VisibilityMPH,Wind Direction,Wind SpeedMPH,Gust SpeedMPH,PrecipitationIn,Events,Conditions,WindDirDegrees,DateUTC
12:07 AM,50.0,50.0,100,29.86,2.5,SSE,4.6,-,N/A,,Overcast,150,2012-12-17 05:07:00
1:11 AM,48.2,48.2,100,29.85,1.0,Calm,Calm,-,N/A,,Overcast,0,2012-12-17 06:11:00
1:32 AM,50.0,50.0,100,29.85,1.2,Calm,Calm,-,N/A,,Overcast,0,2012-12-17 06:32:00
1:53 AM,48.2,48.2,100,29.84,1.0,Calm,Calm,-,N/A,,Overcast,0,2012-12-17 06:53:00
2:15 AM,50.0,50.0,100,29.83,1.0,SSE,4.6,-,N/A,,Overcast,150,2012-12-17 07:15:00
2:36 AM,50.0,50.0,100,29.84,1.2,SSE,4.6,-,N/A,,Overcast,160,2012-12-17 07:36:00
2:57 AM,50.0,50.0,100,29.84,1.0,SSE,4.6,-,N/A,,Overcast,150,2012-12-17 07:57:00
3:19 AM,50.0,50.0,100,29.83,0.8,ESE,3.5,-,N/A,,Overcast,110,2012-12-17 08:19:00
3:40 AM,50.0,50.0,100,29.83,0.2,Calm,Calm,-,N/A,,Overcast,0,2012-12-17 08:40:00
4:01 AM,50.0,50.0,100,29.84,0.2,NW,5.8,-,N/A,,Overcast,310,2012-12-17 09:01:00
4:23 AM,48.2,48.2,100,29.81,0.2,Calm,Calm,-,N/A,,Overcast,0,2012-12-17 09:23:00
4:44 AM,48.2,48.2,100,29.81,0.2,Calm,Calm,-,N/A,,Overcast,0,2012-12-17 09:44:00
5:05 AM,48.2,48.2,100,29.80,0.2,Calm,Calm,-,N/A,,Overcast,0,2012-12-17 10:05:00
5:27 AM,48.2,48.2,100,29.81,0.2,NNW,3.5,-,N/A,,Overcast,330,2012-12-17 10:27:00
5:48 AM,48.2,48.2,100,29.83,0.2,Calm,Calm,-,N/A,,Overcast,0,2012-12-17 10:48:00
6:09 AM,50.0,50.0,100,29.83,0.2,Calm,Calm,-,N/A,,Overcast,0,2012-12-17 11:09:00
6:30 AM,50.0,50.0,100,29.82,0.2,Calm,Calm,-,N/A,,Overcast,0,2012-12-17 11:30:00
6:52 AM,50.0,50.0,100,29.82,0.2,Calm,Calm,-,N/A,,Overcast,0,2012-12-17 11:52:00
7:13 AM,50.0,50.0,100,29.82,0.5,Calm,Calm,-,N/A,,Overcast,0,2012-12-17 12:13:00
7:34 AM,50.0,50.0,100,29.82,0.5,NNE,3.5,-,N/A,,Overcast,20,2012-12-17 12:34:00
7:55 AM,50.0,50.0,100,29.82,0.5,NNE,3.5,-,N/A,,Overcast,30,2012-12-17 12:55:00
8:17 AM,50.0,50.0,100,29.83,0.5,Calm,Calm,-,N/A,,Overcast,0,2012-12-17 13:17:00
8:38 AM,50.0,50.0,100,29.83,0.5,Calm,Calm,-,N/A,,Overcast,0,2012-12-17 13:38:00
8:59 AM,50.0,50.0,100,29.84,0.2,Calm,Calm,-,N/A,,Overcast,0,2012-12-17 13:59:00
9:42 AM,50.0,50.0,100,29.85,0.2,Calm,Calm,-,N/A,,Overcast,0,2012-12-17 14:42:00
10:03 AM,48.2,48.2,100,29.86,0.2,NNW,4.6,-,N/A,,Overcast,330,2012-12-17 15:03:00
10:24 AM,46.4,46.4,100,29.86,0.2,North,4.6,-,N/A,,Overcast,350,2012-12-17 15:24:00
10:45 AM,48.2,48.2,100,29.85,0.2,Calm,Calm,-,N/A,,Overcast,0,2012-12-17 15:45:00
11:06 AM,50.0,50.0,100,29.85,0.2,East,4.6,-,N/A,,Overcast,80,2012-12-17 16:06:00
11:28 AM,50.0,50.0,100,29.84,0.5,East,3.5,-,N/A,,Overcast,90,2012-12-17 16:28:00
11:49 AM,50.0,50.0,100,29.82,0.8,ENE,3.5,-,N/A,,Overcast,70,2012-12-17 16:49:00
12:10 PM,50.0,50.0,100,29.82,0.2,Calm,Calm,-,N/A,,Overcast,0,2012-12-17 17:10:00
12:32 PM,50.0,50.0,100,29.80,0.5,Calm,Calm,-,N/A,,Overcast,0,2012-12-17 17:32:00
12:53 PM,50.0,50.0,100,29.80,1.0,Calm,Calm,-,N/A,,Overcast,0,2012-12-17 17:53:00
1:14 PM,50.0,50.0,100,29.79,0.8,NNE,3.5,-,N/A,,Overcast,30,2012-12-17 18:14:00
1:35 PM,50.0,50.0,100,29.78,0.5,NNE,3.5,-,N/A,,Overcast,30,2012-12-17 18:35:00
1:56 PM,50.0,50.0,100,29.78,0.5,NE,4.6,-,N/A,,Overcast,40,2012-12-17 18:56:00
2:18 PM,50.0,50.0,100,29.75,0.5,NE,5.8,-,N/A,,Overcast,50,2012-12-17 19:18:00
2:39 PM,50.0,50.0,100,29.76,0.5,East,4.6,-,N/A,,Overcast,80,2012-12-17 19:39:00
3:00 PM,50.0,50.0,100,29.76,0.5,Calm,Calm,-,N/A,,Overcast,0,2012-12-17 20:00:00
3:21 PM,50.0,50.0,100,29.76,0.5,East,5.8,-,N/A,,Overcast,90,2012-12-17 20:21:00
7:15 PM,50.0,50.0,100,29.70,1.0,ESE,4.6,-,N/A,,Overcast,120,2012-12-18 00:15:00
7:36 PM,50.0,50.0,100,29.68,1.5,ESE,8.1,-,N/A,,Overcast,110,2012-12-18 00:36:00
7:58 PM,50.0,50.0,100,29.67,1.0,ESE,9.2,-,N/A,,Overcast,120,2012-12-18 00:58:00
8:19 PM,50.0,50.0,100,29.67,1.0,SE,6.9,-,N/A,,Overcast,130,2012-12-18 01:19:00
8:40 PM,50.0,50.0,100,29.65,0.5,ESE,9.2,-,N/A,,Overcast,120,2012-12-18 01:40:00
9:01 PM,50.0,50.0,100,29.64,0.5,ESE,10.4,-,N/A,,Overcast,120,2012-12-18 02:01:00
9:23 PM,50.0,50.0,100,29.62,0.5,ESE,9.2,-,N/A,,Overcast,120,2012-12-18 02:23:00
9:44 PM,50.0,50.0,100,29.61,0.5,SE,11.5,-,N/A,,Overcast,130,2012-12-18 02:44:00
10:05 PM,51.8,51.8,100,29.61,1.0,SE,10.4,-,N/A,,Overcast,140,2012-12-18 03:05:00
10:26 PM,51.8,51.8,100,29.59,1.2,SE,11.5,-,N/A,,Overcast,140,2012-12-18 03:26:00
10:48 PM,51.8,51.8,100,29.58,1.0,SE,10.4,-,N/A,,Overcast,140,2012-12-18 03:48:00
11:09 PM,50.0,50.0,100,29.58,1.2,SSE,8.1,-,N/A,,Overcast,150,2012-12-18 04:09:00
11:52 PM,51.8,51.8,100,29.57,1.8,SSE,9.2,-,N/A,,Overcast,160,2012-12-18 04:52:00